Simultaneous Nadir Overpasses (SNOs) Predictions

Prediction of SNOs between METOP-B and TERRA Satellite Orbit:

Table of predicted SNOs for the next 14.0 days since TLE Epoch: 1/29/2022
Index Date (METOP-B) Time (METOP-B) Lat,Lon (METOP-B) SZA (METOP-B ) Date (TERRA) Time (TERRA) Lat,Lon (TERRA) SZA (TERRA ) Distance(km) Time Diff (sec)
1 01/30/2022 08:30:51 -81.25, -84.28 79.19 01/30/2022 08:31:05 -81.25, -84.19 79.17 1.43 14
2 01/30/2022 09:21:30 81.26, 83.69 100.88 01/30/2022 09:20:31 81.25, 83.53 100.84 2.90 59
3 02/02/2022 04:05:13 -81.25, -17.67 79.96 02/02/2022 04:05:16 -81.26, -17.64 79.96 0.61 3
4 02/02/2022 04:55:53 81.26, 149.86 100.06 02/02/2022 04:54:42 81.26, 150.05 100.05 3.16 71
5 02/04/2022 22:48:55 81.24,-119.24 99.14 02/04/2022 22:50:00 81.24,-119.13 99.18 1.87 65
6 02/04/2022 23:39:34 -81.26, 48.93 80.78 02/04/2022 23:39:26 -81.26, 48.85 80.79 1.40 8
7 02/07/2022 18:23:17 81.24, -52.67 98.29 02/07/2022 18:24:11 81.24, -52.71 98.31 0.76 54
8 02/07/2022 19:13:57 -81.25, 115.15 81.67 02/07/2022 19:13:37 -81.26, 115.29 81.66 2.46 20
9 02/10/2022 13:57:40 81.24, 13.51 97.37 02/10/2022 13:58:22 81.23, 13.65 97.39 2.46 42



Historial Predications of SNOs between METOP-B and TERRA
